This demonstration page uses our WeatherBlox Daily Observations layout. Learn more.

Left ArrowRight Arrow

36.17497, -115.13722

Hourly Observations for September 6, 2020

Temp ( °F °C ) Dew Point ( °F °C ) Humidity (%) Winds ( mph kmh ) Pressure ( in mb ) Visibility ( mi km ) Precip ( " mm )
12:53 am 00:53 Clear 94 34.4 34 1.1 12 12 NW 12 19 29.93 1013 10 16 N/A
1:53 am 01:53 Clear 93 33.9 34 1.1 12 12 NNW 10 17 29.92 1013 10 16 N/A
2:53 am 02:53 Clear 92 33.3 33 0.6 12 12 NW 9 15 29.93 1013 10 16 N/A
3:53 am 03:53 Clear 92 33.3 34 1.1 13 13 W 6 9 29.93 1014 N/A N/A
4:53 am 04:53 Clear 90 32.2 33 0.6 13 13 N 3 6 29.94 1014 N/A N/A
5:53 am 05:53 Clear 90 32.2 31 -0.6 12 12 NNW 17 28 29.96 1014 N/A N/A
6:53 am 06:53 Sunny 91 32.8 31 -0.6 12 12 NNW 10 17 29.98 1015 N/A N/A
7:53 am 07:53 Sunny 93 33.9 34 1.1 12 12 NNW 8 13 29.99 1016 N/A N/A
8:53 am 08:53 Sunny 99 37.2 32 undefined 9 9 NW 12 19 29.99 1016 N/A N/A
9:53 am 09:53 Sunny 102 38.9 33 0.6 9 9 NW 7 11 30.00 1016 N/A N/A
10:53 am 10:53 Sunny 105 40.6 33 0.6 8 8 S 3 6 29.98 1015 N/A N/A
11:53 am 11:53 Sunny 108 42.2 33 0.6 7 7 E 5 7 29.96 1015 N/A N/A
12:53 pm 12:53 Sunny 109 42.8 33 0.6 7 7 S 7 11 29.93 1014 N/A N/A
1:53 pm 13:53 Sunny 114 45.6 30 -1.1 5 5 E 10 17 29.90 1013 N/A N/A
2:53 pm 14:53 Sunny 115 46.1 29 -1.7 5 5 N 12 19 29.88 1012 N/A N/A
3:53 pm 15:53 Sunny 115 46.1 27 -2.8 5 5 NW 13 20 29.85 1011 N/A N/A
4:53 pm 16:53 Sunny 114 45.6 25 -3.9 4 4 NNW 12 19 29.83 1010 N/A N/A
5:53 pm 17:53 Sunny 113 45 24 -4.4 4 4 VRB 7 11 29.81 1010 N/A N/A
6:53 pm 18:53 Sunny 110 43.3 25 -3.9 5 5 NW 8 13 29.80 1009 N/A N/A
7:53 pm 19:53 Clear 104 40 26 -3.3 6 6 WNW 9 15 29.81 1009 N/A N/A
8:53 pm 20:53 Clear 102 38.9 29 -1.7 8 8 SW 5 7 29.80 1009 N/A N/A
9:53 pm 21:53 Clear 102 38.9 26 -3.3 7 7 NNW 9 15 29.80 1009 N/A N/A
10:53 pm 22:53 Clear 102 38.9 26 -3.3 7 7 NW 14 22 29.79 1009 N/A N/A
11:53 pm 23:53 Clear 102 38.9 26 -3.3 7 7 NW 18 30 29.78 1008 N/A N/A

Powered by AerisWeather